This is the latest recevied weather packets stored in our database for station/object KI6PPU. If no packets are shown the sender has not sent any weather packets the latest 10 day(s).
| Time | Temp. | Humidity | Pressure | Rain* | Wind** | Luminosity | Snow |
|---|---|---|---|---|---|---|---|
| 1777400863 | 18.89° C | 58% | 1022.3 hPa | 0 mm | - | 654 W/m² | - |
| 1777400559 | 19.44° C | 62% | 1022.3 hPa | 0 mm | - | 438 W/m² | - |
| 1777400257 | 20° C | 57% | 1022.5 hPa | 0 mm | - | 466 W/m² | - |
| 1777399952 | 20° C | 58% | 1022.3 hPa | 0 mm | - | 893 W/m² | - |
| 1777399649 | 20° C | 57% | 1022.2 hPa | 0 mm | - | 555 W/m² | - |
| 1777399346 | 19.44° C | 60% | 1022.5 hPa | 0 mm | - | 856 W/m² | - |
| 1777399044 | 19.44° C | 58% | 1022.5 hPa | 0 mm | - | 960 W/m² | - |
| 1777398741 | 19.44° C | 57% | 1022.2 hPa | 0 mm | - | 952 W/m² | - |
| 1777398438 | 19.44° C | 58% | 1022.5 hPa | 0 mm | - | 904 W/m² | - |
| 1777398135 | 18.89° C | 62% | 1022.5 hPa | 0 mm | - | 986 W/m² | - |
| 1777397832 | 18.89° C | 59% | 1022.1 hPa | 0 mm | - | 817 W/m² | - |
| 1777397526 | 18.33° C | 58% | 1022.2 hPa | 0 mm | - | 826 W/m² | - |
| 1777397223 | 18.89° C | 60% | 1022.2 hPa | 0 mm | - | 791 W/m² | - |
| 1777396920 | 18.33° C | 59% | 1022.5 hPa | 0 mm | - | 751 W/m² | - |
| 1777396616 | 18.89° C | 55% | 1022.3 hPa | 0 mm | - | 745 W/m² | - |
| 1777396313 | 19.44° C | 59% | 1022.5 hPa | 0 mm | - | 734 W/m² | - |
| 1777396010 | 19.44° C | 58% | 1022.6 hPa | 0 mm | - | 669 W/m² | - |
| 1777395710 | 19.44° C | 57% | 1022.5 hPa | 0 mm | - | 431 W/m² | - |
| 1777395406 | 18.89° C | 61% | 1022.6 hPa | 0 mm | - | 599 W/m² | - |
| 1777395104 | 18.33° C | 61% | 1022.5 hPa | 0 mm | - | 354 W/m² | - |
| 1777394801 | 17.78° C | 60% | 1022.3 hPa | 0 mm | - | 268 W/m² | - |
| 1777394497 | 17.22° C | 59% | 1022.2 hPa | 0 mm | - | 476 W/m² | - |
| 1777394193 | 16.67° C | 65% | 1022.5 hPa | 0 mm | - | 618 W/m² | - |
| 1777393889 | 17.22° C | 65% | 1022.1 hPa | 0 mm | - | 492 W/m² | - |
| 1777393588 | 16.11° C | 67% | 1022.3 hPa | 0 mm | - | 596 W/m² | - |
* Rain latest hour (hover to see other rain measurements)
** Current wind speed in m/s (hover to see current wind gust speed)